Regional Weather Roundup
Issued by NWS

Home | Current Version | Previous Version | Graphics & Text | Print | Product List | Glossary On
Versions: 1 2 3 4 5 6 7 8 9 10 11 12 13 14 15 16 17 18 19 20 21 22 23 24 25 26 27 28 29 30 31 32 33 34 35 36 37 38 39 40 41 42 43 44 45 46 47 48 49 50
000
ASUS43 KIND 222309
RWRIN

WEATHER ROUNDUP FOR INDIANA
NATIONAL WEATHER SERVICE INDIANAPOLIS IN
700 PM EDT TUE APR 22 2014

NOTE: "FAIR" INDICATES FEW OR NO CLOUDS BELOW 12,000 FEET WITH NO
SIGNIFICANT WEATHER AND/OR OBSTRUCTIONS TO VISIBILITY.

* - STATION DOES NOT REPORT WEATHER SUCH AS PRECIPITATION OR FOG.

+ - STATION NOT QUALITY CONTROLLED BY THE NATIONAL WEATHER SERVICE.
    USE DATA WITH CAUTION...ESPECIALLY DEWPOINT AND RELATIVE
    HUMIDITY OBSERVATIONS.

INZ001>003-010>013-019-020-230000-
NORTHWEST INDIANA

CITY           SKY/WX    TMP DP  RH WIND       PRES   REMARKS
GARY /AIRPORT/ MOSUNNY   46  32  57 E14       30.01R
LA PORTE +     SUNNY     46  30  52 N15G24    29.99S
MICHIGAN CITY+ SUNNY     43  28  56 N8G18     30.00S
MONTICELLO +   SUNNY     56  35  45 N3        29.94S
RENSSELAER +   SUNNY     55  34  44 N13       29.96R
VALPARAISO     SUNNY     48  30  49 N10G20    29.98S

$$

LMZ046-743>745-230000-
SOUTHERN LAKE MICHIGAN

STATION/POSITION TIME  TEMP WIND        PRES
                       AIR  DIR/SP/G
                 (UTC) (F)  (DEG/KT/KT) (MB)
MICHIGAN CITY    2300   41   30/ 16/ 18   N/A

$$

INZ004-005-014>016-021>024-230000-
NORTH CENTRAL INDIANA

CITY           SKY/WX    TMP DP  RH WIND       PRES   REMARKS
ELKHART        MOSUNNY   48  28  46 N13       29.96S
GOSHEN         PTSUNNY   50  31  48 NW20G28   29.95R
LOGANSPORT +   SUNNY     54  30  40 N12       29.96S
PERU/GRISSOM   SUNNY     53  31  43 N15       29.95R
ROCHESTER +    SUNNY     54  32  43 N13G18    29.96R
SOUTH BEND     SUNNY     49  30  48 N22       29.98S
WARSAW +       MOSUNNY   48  32  53 N13G20    29.95S

$$

INZ006>009-017-018-025>027-230000-
NORTHEAST INDIANA

CITY           SKY/WX    TMP DP  RH WIND       PRES   REMARKS
ANGOLA *+      MOSUNNY   50  32  50 NW18      29.91R
AUBURN +       SUNNY     50  28  43 W22G29    29.92S
FORT WAYNE     MOSUNNY   50  29  44 NW20G32   29.93R

$$

INZ028-029-035-036-043>045-051>053-230000-
WEST CENTRAL INDIANA

CITY           SKY/WX    TMP DP  RH WIND       PRES   REMARKS
GREENCASTLE +  MOSUNNY   61  36  39 NW7       29.93R
LAFAYETTE      SUNNY     58  33  39 NW13G21   29.94S
TERRE HAUTE    MOSUNNY   63  37  38 N14       29.93R

$$

INZ030>032-037>040-046>048-054>057-064-065-230000-
CENTRAL INDIANA

CITY           SKY/WX    TMP DP  RH WIND       PRES   REMARKS
CP ATTERBURY + SUNNY     61  37  41 N15       29.91S
COLUMBUS       MOSUNNY   59  34  38 MISG      29.91R
GREENWOOD *+   SUNNY     57  34  41 N12       29.93
INDIANAPOLIS   MOSUNNY   56  33  42 N12       29.92R
-EAGLE CREEK   SUNNY     57  33  40 N12       29.93R
KOKOMO *+      SUNNY     54  30  40 N16       29.96R
MARION +       SUNNY     52  27  38 N13G25    29.96R
MT COMFORT *+  SUNNY     55  32  41 NW16      29.94R
SHELBYVILLE    SUNNY     59  31  34 NW17      29.91S
ZIONSVILLE +   SUNNY     56  30  37 N14       29.95R

$$

INZ033-034-041-042-049-050-058-059-230000-
EAST CENTRAL INDIANA

CITY           SKY/WX    TMP DP  RH WIND       PRES   REMARKS
MUNCIE         SUNNY     53  31  42 N22       29.93R

$$

INZ060-061-067>069-081>083-085>088-230000-
SOUTHWEST INDIANA

CITY           SKY/WX    TMP DP  RH WIND       PRES   REMARKS
EVANSVILLE     SUNNY     68  36  30 NW13      29.93R
HUNTINGBURG *+ SUNNY     64  39  39 N10       29.91S
WASHINGTON +   SUNNY     65  38  36 N14       29.91R

$$

INZ062-063-066-070>080-084-089>092-230000-
SOUTH CENTRAL AND SOUTHEAST INDIANA

CITY           SKY/WX    TMP DP  RH WIND       PRES   REMARKS
BEDFORD +      SUNNY     64  25  22 NW6       29.89F
BLOOMINGTON    MOSUNNY   64  33  31 NW8       29.90F
SEYMOUR +      SUNNY     59  18  20 N10       29.88

$$




USA.gov is the U.S. government's official web portal to all federal, state and local government web resources and services.